Location: *
(50.3194°N, 7.1067°E)
Time: 20:13:34
(UTC+00:00)

Cosmos 1461 - Pass Details

Date: 22 September 2019
Orbit: 525 x 643 km, 65.0° (Epoch: 19 October)

Event Time Altitude Azimuth Distance (km) Brightness Sun altitude
Rises 18:32:20 0° 241° (WSW) 2,675 7.1 -10.6°
Reaches altitude 10° 18:34:39 10° 249° (WSW) 1,778 6.3 -11.0°
Maximum altitude 18:38:22 39° 319° (NW) 811 4.2 -11.5°
Drops below altitude 10° 18:42:06 10° 29° (NNE) 1,777 5.3 -12.1°
Sets 18:44:25 0° 38° (NE) 2,673 6.1 -12.5°
